Back to catalog

ARIANE 2 DEB

AliveHEO
NORAD 40788·DEBRIS·🇫🇷 France

Launched Jan 27, 1989 from Guiana Space Centre

Loading…

Next Passes (next 24 hours)

TLE

FreshSource: Space-Track

Epoch: Sep 7, 2026, 21:08 UTC

1 40788U 89006CH  26250.88122706  .00000178  00000-0  61082-3 0  9995
2 40788   8.6076 167.0857 6235307 223.1527  66.2487  3.54700918146773

Track ARIANE 2 DEB in real time with AllMySat

Download on the App Store